Change the Weather History Date:

Saturday, September 14, 2013

  Actual Average Record
Temperature  
Mean Temperature 79 °F -  
Max Temperature 89 °F 85 °F 96 °F (1938)
Min Temperature 69 °F 68 °F 53 °F (1964)
Cooling Degree Days 14    
Growing Degree Days 29 (Base 50)    
Moisture  
Dew Point 67 °F    
Average Humidity 70    
Maximum Humidity 87    
Minimum Humidity 52    
Precipitation  
Precipitation 0.00 in - - ()
Sea Level Pressure  
Sea Level Pressure 29.93 in    
Wind  
Wind Speed 7 mph (NE)    
Max Wind Speed 12 mph    
Max Gust Speed -    
Visibility 10 miles    
Events      
Averages and records for this station are not official NWS values.
T = Trace of Precipitation, MM = Missing Value Source: NWS Daily Summary

Daily Weather History Graph

Daily Weather History Graph

Search for Another Location

Airport or City:

Trip Planner

Search our weather history database for the weather conditions in past years. The results will help you decide how hot, cold, wet, or windy it might be!

Date:

Astronomy

Sep. 14, 2013 Rise Set
Actual Time 7:06 AM EDT 7:29 PM EDT
Civil Twilight 6:41 AM EDT 7:54 PM EDT
Nautical Twilight 6:12 AM EDT 8:23 PM EDT
Astronomical Twilight 5:43 AM EDT 8:52 PM EDT
Moon 3:57 PM EDT (9/14) 1:50 AM EDT (9/14)
Length of Visible Light 13h 13m
Length of Day
12h 23m
Waxing Gibbous, 72% of the Moon is Illuminated
Sep 14
Waxing Gibbous
Sep 19
Full
Sep 26
Last Quarter
Oct 4
New
Oct 11
First Quarter

Hourly Weather History & Observations

Time (EDT) Temp. Heat Index Dew Point Humidity Pressure Visibility Wind Dir Wind Speed Gust Speed Precip Events Conditions
12:56 AM 75.9 °F - 70.0 °F 82% 29.82 in 10.0 mi West 4.6 mph - N/A   Partly Cloudy
1:56 AM 75.0 °F - 71.1 °F 87% 29.81 in 9.0 mi Calm Calm - N/A   Clear
2:56 AM 73.0 °F - 69.1 °F 87% 29.81 in 8.0 mi WNW 3.5 mph - N/A   Clear
3:56 AM 73.9 °F - 69.1 °F 85% 29.82 in 10.0 mi NE 10.4 mph - N/A   Clear
4:56 AM 73.0 °F - 64.0 °F 73% 29.84 in 10.0 mi NE 9.2 mph - N/A   Clear
5:56 AM 72.0 °F - 62.1 °F 71% 29.86 in 10.0 mi NNE 11.5 mph - N/A   Overcast
6:56 AM 70.0 °F - 59.0 °F 68% 29.88 in 10.0 mi NE 11.5 mph - N/A   Clear
7:56 AM 69.1 °F - 60.1 °F 73% 29.91 in 10.0 mi NE 10.4 mph - N/A   Clear
8:56 AM 71.1 °F - 61.0 °F 70% 29.92 in 10.0 mi NE 10.4 mph - N/A   Overcast
9:56 AM 75.0 °F - 63.0 °F 66% 29.94 in 10.0 mi NE 8.1 mph - N/A   Clear
10:56 AM 79.0 °F - 64.0 °F 60% 29.95 in 10.0 mi NNE 9.2 mph - N/A   Clear
11:40 AM 80.1 °F 82.1 °F 66.0 °F 62% 29.94 in 10.0 mi NNE 5.8 mph - N/A   Mostly Cloudy
11:56 AM 81.0 °F 83.0 °F 66.0 °F 60% 29.95 in 10.0 mi NE 5.8 mph - N/A   Mostly Cloudy
12:30 PM 84.0 °F 87.0 °F 68.0 °F 58% 29.95 in 10.0 mi Variable 4.6 mph - N/A   Scattered Clouds
12:56 PM 84.0 °F 87.8 °F 69.1 °F 61% 29.95 in 10.0 mi East 6.9 mph - N/A   Partly Cloudy
1:56 PM 87.1 °F 91.3 °F 69.1 °F 55% 29.95 in 10.0 mi Variable 6.9 mph - N/A   Scattered Clouds
2:56 PM 89.1 °F 93.7 °F 69.1 °F 52% 29.94 in 10.0 mi Variable 6.9 mph - N/A   Scattered Clouds
3:56 PM 88.0 °F 92.9 °F 70.0 °F 55% 29.93 in 10.0 mi NNE 9.2 mph - N/A   Partly Cloudy
4:56 PM 88.0 °F 92.9 °F 70.0 °F 55% 29.94 in 10.0 mi NE 9.2 mph - N/A   Partly Cloudy
5:56 PM 81.0 °F 84.9 °F 71.1 °F 72% 29.96 in 10.0 mi East 11.5 mph - N/A   Scattered Clouds
6:56 PM 80.1 °F 83.2 °F 70.0 °F 71% 29.97 in 10.0 mi East 9.2 mph - N/A   Mostly Cloudy
7:56 PM 79.0 °F - 71.1 °F 77% 29.99 in 10.0 mi East 8.1 mph - N/A   Clear
8:56 PM 78.1 °F - 70.0 °F 76% 30.02 in 10.0 mi East 10.4 mph - N/A   Mostly Cloudy
9:56 PM 77.0 °F - 70.0 °F 79% 30.04 in 10.0 mi East 9.2 mph - N/A   Mostly Cloudy
10:56 PM 77.0 °F - 70.0 °F 79% 30.05 in 10.0 mi ENE 5.8 mph - N/A   Partly Cloudy
11:56 PM 75.9 °F - 69.1 °F 79% 30.06 in 10.0 mi ENE 6.9 mph - N/A   Partly Cloudy